This demonstration page uses our WeatherBlox Daily Observations layout. Learn more.

Left ArrowRight Arrow

41.86663, -103.66717

Hourly Observations for February 27, 2019

Temp ( °F °C ) Dew Point ( °F °C ) Humidity (%) Winds ( mph kmh ) Pressure ( in mb ) Visibility ( mi km ) Precip ( " mm )
12:53 am 00:53 Cloudy 6 -14.4 1 -17.2 79 79 N 6 9 30.35 1028 10 16 N/A
1:53 am 01:53 Cloudy 7 -13.9 1 -17.2 76 76 N 8 13 30.35 1028 10 16 N/A
2:53 am 02:53 Cloudy 6 -14.4 N/A 76 76 NNW 7 11 30.36 1028 10 16 N/A
3:33 am 03:33 Partly Cloudy 5 -15 1 -17.2 83 83 NW 3 6 30.61 1037 10 16 N/A
3:53 am 03:53 Clear 5 -15 1 -17.2 83 83 NW 3 6 30.34 1028 10 16 N/A
4:53 am 04:53 Mostly Clear 5 -15 1 -17.2 83 83 N N/A 30.40 1029 10 16 N/A
5:23 am 05:23 Mostly Cloudy 5 -15 1 -17.2 83 83 WNW 3 6 30.63 1037 10 16 N/A
5:53 am 05:53 Cloudy 6 -14.4 2 -16.7 83 83 N N/A 30.41 1030 10 16 N/A
6:53 am 06:53 Mostly Cloudy 7 -13.9 N/A 73 73 N N/A 30.43 1031 10 16 N/A
7:12 am 07:12 Partly Cloudy 7 -14 N/A 72 72 N N/A 30.58 1036 10 16 N/A
7:53 am 07:53 Sunny 9 -12.8 1 -17.2 70 70 N N/A 30.44 1031 10 16 N/A
8:53 am 08:53 Sunny 13 -10.6 2 -16.7 61 61 N N/A 30.43 1030 10 16 N/A
9:53 am 09:53 Sunny 17 -8.3 4 -15.6 56 56 N N/A 30.41 1030 10 16 N/A
10:53 am 10:53 Sunny 20 -6.7 6 -14.4 55 55 SSE 5 7 30.38 1029 10 16 N/A
11:53 am 11:53 Sunny 21 -6.1 7 -13.9 54 54 N N/A 30.35 1028 10 16 N/A
12:53 pm 12:53 Sunny 24 -4.4 8 -13.3 50 50 E 8 13 30.30 1026 10 16 N/A
1:53 pm 13:53 Mostly Cloudy 24 -4.4 9 -12.8 52 52 E 8 13 30.26 1025 10 16 N/A
2:53 pm 14:53 Cloudy 25 -3.9 9 -12.8 50 50 ESE 10 17 30.24 1024 10 16 N/A
3:53 pm 15:53 Cloudy 25 -3.9 9 -12.8 50 50 SE 13 20 30.24 1024 10 16 N/A
4:53 pm 16:53 Cloudy 24 -4.4 9 -12.8 52 52 ESE 12 19 30.25 1024 10 16 N/A
5:53 pm 17:53 Cloudy 22 -5.6 10 -12.2 60 60 ESE 15 24 30.24 1024 10 16 N/A
6:53 pm 18:53 Cloudy 20 -6.7 11 -11.7 68 68 ESE 14 22 30.23 1024 10 16 N/A
7:53 pm 19:53 Cloudy 20 -6.7 11 -11.7 68 68 SE 20 31 30.20 1023 10 16 N/A
8:53 pm 20:53 Windy with Snow Likely 19 -7.2 14 -10 81 81 ESE 21 33 30.15 1021 6 10 N/A
9:53 pm 21:53 Cloudy 20 -6.7 14 -10 78 78 SE 20 31 30.13 1020 10 16 N/A
10:53 pm 22:53 Mostly Cloudy 20 -6.7 14 -10 78 78 ESE 15 24 30.08 1019 10 16 N/A
11:53 pm 23:53 Mostly Clear 20 -6.7 15 -9.4 81 81 ESE 12 19 30.05 1018 10 16 N/A

Powered by AerisWeather